Погода в Рыркайпие

Россия / Чукотский автономный округ     68°55′01″N   179°28′41″W
темп.,
°C
ветер,
м/с
пор.,
м/с
влажн.,
%
обл.,
%
осадки,
мм/ч
давл.,
гПа
погр.,
м
8 марта, пн
пн800:00−30ююв117732 0.0 100219
03:00−26вюв4483100 0.0 1001235
06:00−26вюв3497100 0.4 996267
09:00−24сз1196100 0.5 991178
12:00−24з4598100 1.6 984163
15:00−24зсз239494 0.1 98195
18:00−26сз458849 0.1 98241
21:00−27сз449267 0.0 98643
9 марта, вт
вт900:00−27сз349483 0.0 98735
03:00−27зсз4598100 0.1 988110
06:00−27зсз3597100 0.1 98998
09:00−26зсз3495100 0.1 992213
12:00−25з2291100 0.1 994275
15:00−24зюз0188100 0.1 997327
18:00−25вюв1297100 0.1 100023
21:00−26всв3497100 0.1 1004118
10 марта, ср
ср1000:00−26всв2397100 0.2 1005114
03:00−26вюв1197100 0.1 100737
06:00−26зюз1197100 0.1 100825
09:00−26юз1292100 0.0 101079
12:00−26ююз2383100 0.1 1011146
15:00−27ю338141 0.0 101220
18:00−29ю347423 0.0 101419
21:00−29ююз346875 0.0 101620
11 марта, чт
чт1100:00−30зюз226458 0.0 101619
03:00−31юз11640 0.0 101719
06:00−30ю33640 0.0 101819
09:00−29ююв33670 0.0 101822
12:00−27юв44710 0.0 101774
15:00−26юв44750 0.0 101736
18:00−28юв34730 0.0 101719
21:00−27ююв33680 0.0 101819
12 марта, пт
пт1200:00−27ююв34650 0.0 101820
03:00−27ююв45640 0.0 101729
06:00−26юв56660 0.0 101648
09:00−25юв67680 0.0 101678
12:00−22юв67700 0.0 1014108
15:00−20юв57730 0.0 101272
18:00−18юв56696 0.0 101042
21:00−14ююв557693 0.0 100969